Regional Weather Roundup
Issued by NWS Green Bay, WI

Home | Current Version | Previous Version | Text Only | Print | Product List | Glossary On
Versions: 1 2 3 4 5 6 7 8 9 10 11 12 13 14 15 16 17 18 19 20 21 22 23 24 25 26 27 28 29 30 31 32 33 34 35 36 37 38 39 40 41 42 43 44 45 46 47 48 49 50
000
ASUS43 KGRB 220610
RWRGRB

NORTH-CENTRAL AND NORTHEAST WISCONSIN REGIONAL WEATHER ROUNDUP
NATIONAL WEATHER SERVICE GREEN BAY WI
100 AM CDT FRI AUG 22 2014

WIZ005-009-010>012-018-019-220700-
NORTH CENTRAL WISCONSIN

CITY           SKY/WX    TMP DP  RH WIND       PRES   REMARKS
IRONWOOD       CLOUDY    66  66 100 SE7       29.90S
MANITOWISH WTR CLOUDY    64  64 100 SE7       29.94F FOG
ARBOR VITAE    CLOUDY    65  63  91 SE5       29.95F
EAGLE RIVER    CLOUDY    64  63  96 SE3       29.96S
LAND O LAKES   LGT RAIN  64  63  95 SE3       29.97F
RHINELANDER    CLOUDY    63  62  97 SE6       29.97S
PHILLIPS       CLOUDY    65  65  98 SE5       29.93R FOG
ANTIGO         CLOUDY    63  62  99 SE7       29.97S FOG
TOMAHAWK       CLOUDY    64  62  95 SE3       29.95S FOG
MERRILL        CLOUDY    65  65 100 E3        29.94F FOG
$$

WIZ013-073-220700-
NORTHEAST WISCONSIN

CITY           SKY/WX    TMP DP  RH WIND       PRES   REMARKS
IRON MOUNTAIN  LGT RAIN  64  62  93 SE8       29.97R
MARINETTE      MOCLDY    66  61  82 E7        29.94F
OCONTO         CLOUDY    66  65  96 E3        29.94F
$$

WIZ017-030-035>037-045-220700-
CENTRAL WISCONSIN

CITY           SKY/WX    TMP DP  RH WIND       PRES   REMARKS
MEDFORD        FOG       65  65 100 E7        29.93S VSB 1/2
WAUSAU         CLOUDY    65  65 100 E8        29.93S FOG
MOSINEE        FOG       64  64 100 E5        29.95S VSB 3/4
MARSHFIELD     CLOUDY    72  70  93 E9        29.92S FOG
WISC RAPIDS    CLOUDY    71  69  93 SE6       29.93F
STEVENS POINT  CLOUDY    66  65  97 E5        29.94S FOG
WAUPACA        CLOUDY    71  69  94 CALM      29.94S FOG
SHAWANO        CLOUDY    68  65  90 CALM      29.95F
CLINTONVILLE   CLOUDY    66  64  94 E3        29.94S FOG
$$

WIZ038-039-048-051-220700-
FOX VALLEY

CITY           SKY/WX    TMP DP  RH WIND       PRES   REMARKS
NWS GREEN BAY  CLOUDY    67  65  93 NE5       29.94F
APPLETON       CLOUDY    68  66  94 SE3       29.94F FOG
OSHKOSH        CLOUDY    71  69  93 S5        29.92F FOG
FOND DU LAC    CLOUDY    70  68  93 S7        29.93F FOG
$$

WIZ022-050-052-220700-
EAST CENTRAL WISCONSIN

CITY           SKY/WX    TMP DP  RH WIND       PRES   REMARKS
STURGEON BAY   CLOUDY    64  63  94 SE3       29.96F
MANITOWOC      FOG      N/A N/A N/A CALM      29.94F VSB 1
SHEBOYGAN      FOG       67  66  97 CALM      29.94F VSB 1/4
$$

LMZ563-521-522-541>543-220700-
LAKESHORE

STATION/POSITION TIME  TEMP    WIND        PRES    VSBY  WAVE
                       AIR SEA DIR/SP/G                  HT/PER
                 (UTC) (F)     (DEG/KT/KT) (MB)    (MI)  (FT/S)
SHEBOYGAN LKSHOR 0600   66 64  150/  5/  5 1013.9F
KEWAUNEE LKSHORE 0600   66     150/  3/  4 1013.5F
ALGOMA MARINA    0500          120/  5/  6   N/A
NORTHPORT PIER   0600   66     170/  2/  3 1014.6F
N MID LAKE BUOY  0600   65 65   60/  6/  6 1014.3R         0
S GREEN BAY BUOY 0600   67     VRB  6      1015.2F
SISTER BAY LKSHO 0500   66     130/  6/  8   N/A
CHAMBERS ISLAND  0600   67     100/  2/  5 1014.9S
MENOMINEE LKSHOR 0600   68     100/  5/  5 1014.8F
$$


USA.gov is the U.S. government's official web portal to all federal, state and local government web resources and services.